Location: Unspecified
(0.0000°N, 0.0000°E)
Time: 17:28:05
(UTC+00:00)

Vanguard 3 - Pass Details

Date: 03 February 2023
Orbit: 509 x 3249 km, 33.3° (Epoch: 20 March)

Event Time Altitude Azimuth Distance (km) Brightness Sun altitude
Rises 16:59:35 0° 280° (W) 3,158 11.3 17.8°
Reaches altitude 10° 17:02:31 10° 301° (WNW) 2,533 10.4 17.1°
Maximum altitude 17:06:26 17° 342° (NNW) 2,468 9.7 16.1°
Drops below altitude 10° 17:11:45 10° 20° (NNE) 3,594 10.1 14.9°
Sets 17:17:14 0° 37° (NE) 5,203 10.8 13.6°
